SCP
0 0 0 -0 -0 -0 -0 -0 -0 -0 -0 -0 0 0 0 -0 -0 -0 0 -0 -0 -0 0 0 0 0 -0 -0 -0 -0 0 0 0 0 0 0 0 0 0 0 0 0 -0
0 -0 -0 -0 -0 -0 -0 -0 0 0 0 0 0 0 0 0 0 0 0 -0 -0 0 0 0 0 0 0 0 0 -0 -0 -0 0 0 0 0 0 0 -0 0 0 0 -0
-0 0 -0 0 0 0 -0 0 -0 -0 0 0 0 -0 -0 -0 0 0 0 0 0 0 0 0 0 0 0 0 0 -0 0 -0 -0 0 0 0 0 0 -0 -0 0 -0 -0
0 0 -0 0 0 0 0 0 -0 0 -0 0 0 -0 -0 0 0 0 0 0 0 0 0 0 0 0 0 0 0 0 -0 -0 0 0 0 0 0 -0 0 -0 -0 -0 -0
0 0 -0 0 0 0 0 -0 -0 -0 0 0 0 0 -0 -0 0 0 0 0 0 0 0 0 0 0 0 0 0 -0 -0 -0 0 0 0 0 0 -0 -0 -0 -0 -0 -0
0 0 0 0 -0 -0 0 0 -0 -0 0 0 0 0 -0 -0 0 0 0 0 0 0 0 -0 0 0 0 0 0 0 0 0 -0 0 0 0 0 -0 -0 -0 -0 -0 -0
0 0 0 0 -0 -0 -0 0 -0 0 0 0 -0 -0 0 -0 0 0 0 0 -0 0 0 0 -0 -0 0 0 0 0 -0 0 -0 -0 -0 -0 0 0 -0 0 -0 -0 -0
0 0 0 0 0 0 0 0 0 -0 0 0 -0 -0 -0 0 -0 0 0 0 -0 -0 0 0 -0 0 0 0 0 0 0 -0 0 -0 -0 -0 0 -0 -0 -0 -0 -0 -0
0 0 0 -0 0 0 0 0 0 0 0 -0 -0 -0 -0 0 -0 0 0 -0 0 -0 -0 -0 0 -0 -0 0 0 0 0 0 0 -0 -0 -0 -0 -0 0 0 -0 -0 -0
0 0 -0 -0 0 0 0 0 0 -0 -0 -0 -0 0 -0 -0 0 0 -0 -0 -0 -0 -0 -0 -0 -0 -0 -0 0 0 -0 -0 0 -0 -0 -0 -0 0 -0 0 -0 -0 -0
-0 -0 -0 -0 0 -0 0 0 -0 -0 -0 0 0 -0 -0 -0 -0 -0 0 -0 -0 -0 -0 -0 -0 -0 0 0 0 0 0 0 0 -0 -0 0 -0 -0 0 -0 -0 -0 0
-0 -0 -0 -0 0 0 0 0 -0 0 0 -0 -0 -0 -0 -0 -0 0 -0 -0 0 0 -0 -0 -0 -0 0 0 0 -0 0 0 0 -0 -0 -0 -0 -0 -0 0 0 -0 0
-0 -0 -0 -0 0 0 -0 -0 -0 -0 -0 -0 -0 -0 -0 -0 -0 -0 -0 -0 -0 0 -0 -0 -0 -0 0 0 0 0 -0 -0 -0 0 -0 -0 -0 0 -0 -0 -0 0 0
-0 -0 -0 -0 -0 -0 -0 -0 -0 -0 -0 -0 -0 -0 0 -0 -0 0 0 0 -0 0 0 -0 -0 -0 -0 -0 -0 -0 -0 -0 -0 -0 -0 0 -0 -0 0 -0 -0 0 0
-0 -0 -0 -0 -0 -0 -0 -0 -0 -0 -0 -0 -0 -0 0 -0 -0 0 0 0 0 -0 0 0 0 -0 -0 -0 0 -0 -0 -0 -0 -0 -0 0 -0 0 0 -0 -0 -0 0
-0 -0 -0 -0 -0 -0 -0 -0 -0 -0 -0 -0 0 0 -0 0 -0 -0 -0 -0 -0 0 -0 -0 -0 -0 -0 -0 -0 0 -0 -0 -0 -0 -0 -0 -0 -0 -0 -0 0 -0 -0
-0 -0 0 -0 -0 -0 -0 -0 -0 -0 -0 -0 -0 0 0 0 -0 -0 0 0 -0 -0 0 0 0 -0 0 -0 0 0 0 0 -0 -0 -0 -0 -0 0 -0 0 0 0 0
-0 0 0 0 0 0 -0 -0 -0 0 -0 -0 0 0 0 -0 0 -0 -0 -0 0 0 -0 -0 0 0 0 0 0 0 0 0 0 -0 -0 -0 -0 -0 0 -0 -0 0 0
-0 0 0 0 0 0 -0 -0 -0 -0 0 0 0 0 0 0 0 -0 -0 -0 0 -0 -0 0 0 0 0 0 0 0 -0 -0 0 0 0 0 0 -0 0 0 -0 -0 -0
-0 -0 -0 0 0 0 0 0 -0 0 0 0 0 0 0 0 0 0 -0 0 0 -0 0 0 0 0 0 0 0 0 0 0 0 0 0 -0 0 0 0 0 0 0 -0
-0 -0 -0 -0 -0 -0 0 0 0 0 0 0 0 0 0 0 0 0 -0 -0 -0 0 0 0 0 0 0 -0 -0 -0 -0 0 0 -0 -0 -0 -0 0 0 0 0 0 0
-0 -0 -0 -0 0 -0 0 0 0 0 0 0 0 0 0 0 0 0 0 -0 0 0 0 0 0 -0 -0 -0 -0 -0 -0 -0 -0 -0 -0 -0 -0 -0 0 0 0 0 0
-0 -0 -0 -0 -0 -0 0 0 0 0 0 0 0 0 0 0 0 0 -0 0 0 0 0 0 -0 0 -0 -0 -0 0 -0 -0 0 -0 -0 0 0 -0 0 0 0 0 -0
-0 -0 -0 -0 -0 -0 0 0 0 0 0 0 0 0 0 0 0 -0 -0 0 0 0 0 -0 -0 -0 -0 0 0 0 -0 -0 0 0 0 0 0 0 0 0 0 0 0
-0 -0 -0 -0 0 0 -0 0 0 0 0 0 0 0 0 -0 -0 -0 -0 -0 0 0 -0 -0 -0 -0 -0 0 0 0 0 0 0 0 0 0 0 0 0 0 0 0 0
-0 -0 -0 -0 0 0 -0 -0 -0 -0 -0 0 0 0 -0 -0 -0 -0 -0 -0 -0 0 0 0 -0 -0 -0 0 0 0 0 0 0 0 0 0 0 0 0 0 0 0 0
Wind_Speed_500mb
37 39 44 45 45 44 43 46 47 46 43 43 43 40 37 33 29 25 22 19 19 17 17 15 16 16 15 16 17 25 30 25 16 18 21 23 23 22 20 21 22 25 26
43 45 46 43 41 40 40 42 45 43 42 42 40 35 32 28 22 19 17 15 18 16 14 12 14 16 18 25 35 32 31 23 15 20 22 23 22 21 21 20 22 25 26
45 47 49 43 40 39 38 39 40 41 39 38 35 31 26 21 18 15 15 14 15 14 14 15 15 18 22 28 29 33 29 23 17 19 19 21 23 20 20 21 21 23 25
47 48 46 41 41 42 38 36 37 36 34 33 31 28 22 15 12 11 11 9 10 10 13 16 20 19 22 25 26 26 24 22 15 16 16 17 15 18 19 21 21 21 24
47 44 45 42 41 40 37 38 35 32 29 27 25 23 17 12 10 11 7 6 9 11 14 17 20 19 23 23 23 22 20 20 15 13 13 19 14 16 18 20 21 21 22
46 47 46 44 40 37 34 33 29 25 25 22 19 18 15 12 11 10 5 5 11 12 14 17 20 19 22 21 20 18 17 14 11 11 13 13 12 17 17 18 17 20 20
45 44 44 40 38 35 30 27 24 21 20 20 18 16 14 12 11 9 4 7 12 14 15 16 19 17 16 20 19 17 13 11 12 17 13 9 11 16 16 18 16 16 19
43 42 40 39 37 31 26 24 20 19 18 18 18 17 15 11 11 9 8 9 14 14 17 16 17 18 14 13 16 9 9 3 13 23 16 7 12 12 15 13 14 15 16
37 39 39 36 29 25 23 18 16 18 16 17 15 17 14 12 9 9 13 13 13 14 16 17 15 14 16 14 13 9 5 8 9 30 23 14 12 12 11 12 9 12 15
37 37 34 31 29 26 21 19 15 15 15 15 14 13 11 8 8 11 12 13 14 13 14 16 17 13 11 10 10 10 7 9 14 24 13 11 12 11 10 9 10 11 12
39 34 33 31 25 23 22 20 17 17 16 15 14 12 11 9 7 8 11 13 14 13 14 17 17 13 9 5 13 12 9 12 10 10 10 10 12 11 11 8 9 11 11
44 41 35 30 25 24 20 19 21 17 16 14 14 13 13 11 8 10 11 12 13 15 13 13 17 15 12 8 14 12 10 7 7 7 8 12 12 11 11 9 9 9 11
39 39 37 32 28 24 22 21 20 19 17 14 12 15 13 14 11 9 8 8 9 13 16 14 14 13 11 10 11 7 6 4 6 6 8 10 9 11 11 7 7 10 11
40 38 37 36 32 28 23 20 19 18 15 15 11 13 12 13 8 8 6 4 9 21 20 16 16 16 16 13 11 8 8 6 7 10 12 9 8 7 5 5 4 8 8
37 39 39 35 34 33 26 23 22 17 14 14 10 9 11 8 5 10 8 2 2 22 19 18 18 17 15 17 15 16 20 18 15 6 14 11 12 10 13 12 11 11 10
36 40 37 38 34 37 31 23 21 17 14 16 12 9 7 6 8 10 9 0 6 15 17 16 13 14 24 22 17 13 17 17 21 19 16 16 16 17 17 16 18 21 15
43 41 41 42 39 39 29 23 21 18 18 17 10 15 12 13 10 10 8 7 12 15 15 15 12 11 14 11 13 16 14 19 24 26 26 26 21 18 22 25 28 31 22
46 47 42 44 43 38 31 26 23 23 21 16 14 12 8 10 10 13 13 15 15 17 14 14 12 12 12 14 17 18 15 15 16 16 18 19 25 27 27 32 31 10 32
48 51 53 48 45 41 34 27 29 27 27 20 18 14 13 14 11 12 8 20 21 18 14 12 11 12 11 10 8 9 7 11 12 13 8 10 13 19 23 27 24 17 17
55 51 49 50 47 43 35 34 33 34 33 29 21 14 12 15 7 8 6 17 20 18 16 12 12 10 7 6 5 6 8 9 13 11 9 9 11 13 15 19 20 15 12
61 55 50 50 51 46 41 41 40 36 32 31 23 18 17 10 10 7 8 16 19 16 11 14 14 10 7 8 10 11 11 13 16 15 15 11 10 9 12 11 12 10 8
65 62 57 53 53 53 49 43 43 35 30 26 29 25 23 17 15 9 8 10 14 18 16 13 10 9 9 8 9 8 6 4 0 9 15 13 12 9 5 7 9 6 7
73 70 64 58 54 56 54 51 49 41 35 35 34 29 31 24 18 13 13 9 13 15 15 11 11 12 10 9 9 8 4 4 2 3 7 9 9 6 8 4 2 7 6
78 73 70 66 60 58 57 57 54 44 39 32 31 29 29 31 23 18 19 17 14 17 14 13 15 13 11 12 12 12 11 9 2 3 1 11 8 9 6 11 6 12 4
76 76 71 68 66 60 58 57 52 47 36 30 31 31 36 30 28 25 23 24 18 17 18 15 14 13 14 16 17 15 16 16 19 16 9 7 6 12 13 9 11 12 6
71 72 72 70 63 60 53 57 53 46 37 33 30 30 25 26 24 25 25 21 21 20 18 16 16 17 20 20 17 19 21 22 23 25 23 18 15 12 18 16 10 11 6
Wind_Direction_500mb
151 141 138 134 131 129 133 135 133 133 134 137 141 137 128 125 125 123 119 114 110 103 97 89 90 104 108 98 101 126 141 135 126 111 111 110 110 109 108 104 97 103 102
150 144 144 139 134 134 131 138 141 139 136 140 142 142 133 130 132 128 115 118 115 103 95 83 81 115 112 101 101 110 139 140 135 115 115 109 104 111 113 112 111 114 111
148 144 145 146 142 138 135 138 141 144 144 147 147 145 140 137 128 110 113 126 120 110 100 96 97 116 125 118 123 110 124 125 123 123 111 116 100 113 118 116 114 119 117
146 143 146 146 145 145 140 136 138 140 144 149 152 146 147 155 135 113 113 126 122 116 110 106 118 121 127 120 126 127 123 127 133 130 119 129 120 117 120 124 123 121 124
146 143 142 146 148 149 147 142 146 144 150 153 157 154 155 163 157 141 121 102 104 119 123 118 125 126 130 130 135 134 140 139 132 129 121 124 128 129 130 128 128 130 130
142 142 144 147 147 148 146 146 151 158 160 160 165 157 156 159 166 152 143 104 103 109 115 128 131 127 130 135 136 147 159 160 169 151 117 127 130 136 136 132 126 133 135
151 151 150 151 153 150 150 150 155 165 168 168 177 177 175 177 171 157 161 133 118 120 122 131 136 134 128 127 139 156 163 188 208 177 139 138 140 141 139 135 135 132 134
161 158 156 158 157 153 159 161 159 172 166 173 181 185 181 178 174 172 165 148 130 126 130 136 153 152 148 145 141 134 134 189 219 193 188 175 148 138 146 141 146 148 145
168 165 166 163 163 165 167 164 170 170 170 173 162 172 175 190 199 184 164 151 141 129 139 145 157 172 173 172 159 156 155 72 126 164 162 165 167 161 159 166 153 159 160
172 175 173 177 179 175 167 173 170 163 167 164 174 179 182 181 196 185 170 157 146 142 144 149 161 178 186 184 176 171 159 122 112 156 168 174 172 171 174 168 169 177 173
175 174 177 181 180 180 178 167 168 169 157 163 162 162 150 148 192 199 182 169 158 154 154 158 169 176 197 166 141 142 125 105 136 141 170 178 170 175 170 177 187 188 186
181 182 184 184 185 185 176 172 175 165 167 167 150 156 148 153 163 183 186 176 174 167 169 167 174 182 178 163 142 126 116 150 128 118 152 164 164 168 176 182 188 196 199
183 186 188 187 185 182 174 181 174 171 171 160 158 162 165 180 163 155 165 160 183 189 169 169 179 190 185 178 174 184 157 150 204 182 173 162 167 167 175 189 195 206 207
190 191 188 187 186 177 177 174 172 169 158 152 160 174 179 184 170 193 192 227 256 197 187 173 174 194 192 195 208 212 240 274 232 234 195 188 187 146 155 170 235 228 226
194 195 190 189 185 178 180 173 179 179 177 169 170 170 196 215 262 241 216 251 296 182 187 191 201 210 216 221 224 260 256 256 244 207 205 217 221 199 208 214 239 271 259
189 187 185 185 185 188 193 190 191 189 183 193 213 220 218 221 260 279 229 315 189 195 199 199 191 216 232 239 242 269 235 241 236 241 237 240 242 236 224 202 239 243 239
193 192 189 185 185 187 192 196 207 204 208 203 224 248 265 278 268 280 265 213 204 192 198 205 233 232 235 237 233 249 251 247 241 246 248 243 242 246 240 239 265 268 248
202 205 201 201 200 202 204 209 215 220 216 221 224 237 256 270 279 283 260 215 204 207 218 209 212 221 223 245 246 251 262 255 245 245 247 245 243 245 246 253 276 297 239
207 212 213 210 212 213 216 217 224 227 232 236 234 252 262 272 292 299 230 197 197 199 202 212 231 243 244 254 258 249 255 255 241 249 253 264 249 244 241 258 286 295 256
221 220 221 221 222 220 227 228 229 229 233 239 237 238 278 255 276 312 203 191 193 197 206 215 225 236 235 234 227 228 261 267 255 249 243 238 247 240 246 255 281 292 279
229 225 224 224 227 224 227 229 227 233 242 243 233 244 240 244 257 272 204 181 187 185 199 211 207 216 219 231 244 260 257 274 261 259 247 235 233 253 257 253 258 273 284
224 226 226 229 229 229 231 234 232 237 248 240 237 236 243 242 228 239 198 177 194 190 187 190 211 228 237 243 235 234 268 244 225 223 235 237 243 228 239 256 232 235 240
231 230 228 227 232 233 234 233 232 234 241 236 227 237 230 224 226 229 209 186 190 194 199 211 218 223 231 235 231 228 203 186 224 323 162 184 201 202 203 213 214 209 214
229 234 234 232 231 233 234 232 231 234 237 245 234 226 221 230 224 222 202 208 201 212 222 228 228 238 243 254 241 250 243 243 227 229 218 197 209 192 223 210 207 193 214
233 235 236 235 229 228 230 228 230 234 241 254 243 229 242 225 228 215 205 208 220 225 229 234 239 241 241 250 260 258 250 250 249 244 228 242 259 236 240 216 205 197 220
235 236 234 232 224 221 224 224 227 230 231 236 228 225 228 210 211 212 199 199 210 227 230 237 233 235 243 255 257 256 254 253 254 244 242 253 259 236 225 216 226 221 227
Wind_Speed_850mb
37 39 44 45 45 44 43 46 47 46 43 43 43 40 37 33 29 25 22 19 19 17 17 15 16 16 15 16 17 25 30 25 16 18 21 23 23 22 20 21 22 25 26
43 45 46 43 41 40 40 42 45 43 42 42 40 35 32 28 22 19 17 15 18 16 14 12 14 16 18 25 35 32 31 23 15 20 22 23 22 21 21 20 22 25 26
45 47 49 43 40 39 38 39 40 41 39 38 35 31 26 21 18 15 15 14 15 14 14 15 15 18 22 28 29 33 29 23 17 19 19 21 23 20 20 21 21 23 25
47 48 46 41 41 42 38 36 37 36 34 33 31 28 22 15 12 11 11 9 10 10 13 16 20 19 22 25 26 26 24 22 15 16 16 17 15 18 19 21 21 21 24
47 44 45 42 41 40 37 38 35 32 29 27 25 23 17 12 10 11 7 6 9 11 14 17 20 19 23 23 23 22 20 20 15 13 13 19 14 16 18 20 21 21 22
46 47 46 44 40 37 34 33 29 25 25 22 19 18 15 12 11 10 5 5 11 12 14 17 20 19 22 21 20 18 17 14 11 11 13 13 12 17 17 18 17 20 20
45 44 44 40 38 35 30 27 24 21 20 20 18 16 14 12 11 9 4 7 12 14 15 16 19 17 16 20 19 17 13 11 12 17 13 9 11 16 16 18 16 16 19
43 42 40 39 37 31 26 24 20 19 18 18 18 17 15 11 11 9 8 9 14 14 17 16 17 18 14 13 16 9 9 3 13 23 16 7 12 12 15 13 14 15 16
37 39 39 36 29 25 23 18 16 18 16 17 15 17 14 12 9 9 13 13 13 14 16 17 15 14 16 14 13 9 5 8 9 30 23 14 12 12 11 12 9 12 15
37 37 34 31 29 26 21 19 15 15 15 15 14 13 11 8 8 11 12 13 14 13 14 16 17 13 11 10 10 10 7 9 14 24 13 11 12 11 10 9 10 11 12
39 34 33 31 25 23 22 20 17 17 16 15 14 12 11 9 7 8 11 13 14 13 14 17 17 13 9 5 13 12 9 12 10 10 10 10 12 11 11 8 9 11 11
44 41 35 30 25 24 20 19 21 17 16 14 14 13 13 11 8 10 11 12 13 15 13 13 17 15 12 8 14 12 10 7 7 7 8 12 12 11 11 9 9 9 11
39 39 37 32 28 24 22 21 20 19 17 14 12 15 13 14 11 9 8 8 9 13 16 14 14 13 11 10 11 7 6 4 6 6 8 10 9 11 11 7 7 10 11
40 38 37 36 32 28 23 20 19 18 15 15 11 13 12 13 8 8 6 4 9 21 20 16 16 16 16 13 11 8 8 6 7 10 12 9 8 7 5 5 4 8 8
37 39 39 35 34 33 26 23 22 17 14 14 10 9 11 8 5 10 8 2 2 22 19 18 18 17 15 17 15 16 20 18 15 6 14 11 12 10 13 12 11 11 10
36 40 37 38 34 37 31 23 21 17 14 16 12 9 7 6 8 10 9 0 6 15 17 16 13 14 24 22 17 13 17 17 21 19 16 16 16 17 17 16 18 21 15
43 41 41 42 39 39 29 23 21 18 18 17 10 15 12 13 10 10 8 7 12 15 15 15 12 11 14 11 13 16 14 19 24 26 26 26 21 18 22 25 28 31 22
46 47 42 44 43 38 31 26 23 23 21 16 14 12 8 10 10 13 13 15 15 17 14 14 12 12 12 14 17 18 15 15 16 16 18 19 25 27 27 32 31 10 32
48 51 53 48 45 41 34 27 29 27 27 20 18 14 13 14 11 12 8 20 21 18 14 12 11 12 11 10 8 9 7 11 12 13 8 10 13 19 23 27 24 17 17
55 51 49 50 47 43 35 34 33 34 33 29 21 14 12 15 7 8 6 17 20 18 16 12 12 10 7 6 5 6 8 9 13 11 9 9 11 13 15 19 20 15 12
61 55 50 50 51 46 41 41 40 36 32 31 23 18 17 10 10 7 8 16 19 16 11 14 14 10 7 8 10 11 11 13 16 15 15 11 10 9 12 11 12 10 8
65 62 57 53 53 53 49 43 43 35 30 26 29 25 23 17 15 9 8 10 14 18 16 13 10 9 9 8 9 8 6 4 0 9 15 13 12 9 5 7 9 6 7
73 70 64 58 54 56 54 51 49 41 35 35 34 29 31 24 18 13 13 9 13 15 15 11 11 12 10 9 9 8 4 4 2 3 7 9 9 6 8 4 2 7 6
78 73 70 66 60 58 57 57 54 44 39 32 31 29 29 31 23 18 19 17 14 17 14 13 15 13 11 12 12 12 11 9 2 3 1 11 8 9 6 11 6 12 4
76 76 71 68 66 60 58 57 52 47 36 30 31 31 36 30 28 25 23 24 18 17 18 15 14 13 14 16 17 15 16 16 19 16 9 7 6 12 13 9 11 12 6
71 72 72 70 63 60 53 57 53 46 37 33 30 30 25 26 24 25 25 21 21 20 18 16 16 17 20 20 17 19 21 22 23 25 23 18 15 12 18 16 10 11 6
Wind_Direction_850mb
151 141 138 134 131 129 133 135 133 133 134 137 141 137 128 125 125 123 119 114 110 103 97 89 90 104 108 98 101 126 141 135 126 111 111 110 110 109 108 104 97 103 102
150 144 144 139 134 134 131 138 141 139 136 140 142 142 133 130 132 128 115 118 115 103 95 83 81 115 112 101 101 110 139 140 135 115 115 109 104 111 113 112 111 114 111
148 144 145 146 142 138 135 138 141 144 144 147 147 145 140 137 128 110 113 126 120 110 100 96 97 116 125 118 123 110 124 125 123 123 111 116 100 113 118 116 114 119 117
146 143 146 146 145 145 140 136 138 140 144 149 152 146 147 155 135 113 113 126 122 116 110 106 118 121 127 120 126 127 123 127 133 130 119 129 120 117 120 124 123 121 124
146 143 142 146 148 149 147 142 146 144 150 153 157 154 155 163 157 141 121 102 104 119 123 118 125 126 130 130 135 134 140 139 132 129 121 124 128 129 130 128 128 130 130
142 142 144 147 147 148 146 146 151 158 160 160 165 157 156 159 166 152 143 104 103 109 115 128 131 127 130 135 136 147 159 160 169 151 117 127 130 136 136 132 126 133 135
151 151 150 151 153 150 150 150 155 165 168 168 177 177 175 177 171 157 161 133 118 120 122 131 136 134 128 127 139 156 163 188 208 177 139 138 140 141 139 135 135 132 134
161 158 156 158 157 153 159 161 159 172 166 173 181 185 181 178 174 172 165 148 130 126 130 136 153 152 148 145 141 134 134 189 219 193 188 175 148 138 146 141 146 148 145
168 165 166 163 163 165 167 164 170 170 170 173 162 172 175 190 199 184 164 151 141 129 139 145 157 172 173 172 159 156 155 72 126 164 162 165 167 161 159 166 153 159 160
172 175 173 177 179 175 167 173 170 163 167 164 174 179 182 181 196 185 170 157 146 142 144 149 161 178 186 184 176 171 159 122 112 156 168 174 172 171 174 168 169 177 173
175 174 177 181 180 180 178 167 168 169 157 163 162 162 150 148 192 199 182 169 158 154 154 158 169 176 197 166 141 142 125 105 136 141 170 178 170 175 170 177 187 188 186
181 182 184 184 185 185 176 172 175 165 167 167 150 156 148 153 163 183 186 176 174 167 169 167 174 182 178 163 142 126 116 150 128 118 152 164 164 168 176 182 188 196 199
183 186 188 187 185 182 174 181 174 171 171 160 158 162 165 180 163 155 165 160 183 189 169 169 179 190 185 178 174 184 157 150 204 182 173 162 167 167 175 189 195 206 207
190 191 188 187 186 177 177 174 172 169 158 152 160 174 179 184 170 193 192 227 256 197 187 173 174 194 192 195 208 212 240 274 232 234 195 188 187 146 155 170 235 228 226
194 195 190 189 185 178 180 173 179 179 177 169 170 170 196 215 262 241 216 251 296 182 187 191 201 210 216 221 224 260 256 256 244 207 205 217 221 199 208 214 239 271 259
189 187 185 185 185 188 193 190 191 189 183 193 213 220 218 221 260 279 229 315 189 195 199 199 191 216 232 239 242 269 235 241 236 241 237 240 242 236 224 202 239 243 239
193 192 189 185 185 187 192 196 207 204 208 203 224 248 265 278 268 280 265 213 204 192 198 205 233 232 235 237 233 249 251 247 241 246 248 243 242 246 240 239 265 268 248
202 205 201 201 200 202 204 209 215 220 216 221 224 237 256 270 279 283 260 215 204 207 218 209 212 221 223 245 246 251 262 255 245 245 247 245 243 245 246 253 276 297 239
207 212 213 210 212 213 216 217 224 227 232 236 234 252 262 272 292 299 230 197 197 199 202 212 231 243 244 254 258 249 255 255 241 249 253 264 249 244 241 258 286 295 256
221 220 221 221 222 220 227 228 229 229 233 239 237 238 278 255 276 312 203 191 193 197 206 215 225 236 235 234 227 228 261 267 255 249 243 238 247 240 246 255 281 292 279
229 225 224 224 227 224 227 229 227 233 242 243 233 244 240 244 257 272 204 181 187 185 199 211 207 216 219 231 244 260 257 274 261 259 247 235 233 253 257 253 258 273 284
224 226 226 229 229 229 231 234 232 237 248 240 237 236 243 242 228 239 198 177 194 190 187 190 211 228 237 243 235 234 268 244 225 223 235 237 243 228 239 256 232 235 240
231 230 228 227 232 233 234 233 232 234 241 236 227 237 230 224 226 229 209 186 190 194 199 211 218 223 231 235 231 228 203 186 224 323 162 184 201 202 203 213 214 209 214
229 234 234 232 231 233 234 232 231 234 237 245 234 226 221 230 224 222 202 208 201 212 222 228 228 238 243 254 241 250 243 243 227 229 218 197 209 192 223 210 207 193 214
233 235 236 235 229 228 230 228 230 234 241 254 243 229 242 225 228 215 205 208 220 225 229 234 239 241 241 250 260 258 250 250 249 244 228 242 259 236 240 216 205 197 220
235 236 234 232 224 221 224 224 227 230 231 236 228 225 228 210 211 212 199 199 210 227 230 237 233 235 243 255 257 256 254 253 254 244 242 253 259 236 225 216 226 221 227